Orbital Elements at Epoch 2459200.5 (2020-Dec-17.0) TDB
Reference: JPL 79 (heliocentric ecliptic J2000)
Element | Value | Uncertainty (1-sigma) | Units |
e | .6991330826813269 | 6.8615e-08 | |
a | .81700963078832 | 2.2288e-09 | au |
q | .2458111690349491 | 5.6093e-08 | au |
i | 12.75360229603684 | 1.2509e-05 | deg |
node | 164.2108380517145 | 1.4556e-05 | deg |
peri | 355.3678963857905 | 1.5131e-05 | deg |
M | 99.35617382386269 | 2.7296e-05 | deg |
tp | 2459126.055683192685 (2020-Oct-03.55568319) | 2.0209e-05 | TDB |
period | 269.7361725919924 0.74 | 1.1038e-06 3.022e-09 | d yr |
n | 1.334637459042404 | 5.4614e-09 | deg/d |
Q | 1.388208092541691 | 3.7871e-09 | au |
|
| | Orbit Determination Parameters
Additional Information
|